Temp
7 6 6 6 6 6 6 7 7 7 7 7 7 7 7 7 7 8 8 8 8 8 8 8 8 8 8 8 8 8 8 8 8
6 6 6 6 6 6 6 7 7 7 7 7 7 7 8 8 8 8 8 8 8 8 8 8 8 8 8 8 8 8 8 8 8
5 5 6 6 6 6 6 7 7 7 7 7 7 7 7 8 8 8 8 7 8 8 8 8 8 8 8 8 8 8 8 8 8
5 5 5 5 6 6 6 7 7 7 7 7 7 7 7 7 7 7 6 5 7 7 7 7 7 8 8 7 7 8 8 8 8
5 5 5 5 5 6 6 6 7 7 7 7 7 7 7 7 7 7 7 6 7 7 7 7 7 7 8 7 8 8 8 7 7
6 5 5 4 6 6 6 6 6 7 7 7 7 7 7 7 7 7 7 7 7 7 7 7 7 8 8 8 8 7 7 7 7
6 6 6 5 6 6 6 6 6 7 7 7 7 8 7 7 7 7 7 7 7 7 7 7 8 7 7 7 7 7 7 7 7
5 6 6 6 6 6 7 7 7 6 7 7 7 7 7 7 7 7 7 7 7 7 7 7 7 7 7 7 7 7 7 7 7
6 6 6 6 6 6 6 6 6 6 6 6 7 7 7 7 7 7 7 7 7 7 7 7 7 7 7 7 7 7 7 7 7
6 6 6 6 6 5 5 6 5 6 6 6 6 6 7 6 7 7 7 6 6 7 7 7 7 7 7 7 7 7 7 7 6
6 6 6 6 5 5 5 5 5 6 5 6 6 6 6 6 6 7 6 6 6 6 7 7 7 7 7 7 6 6 6 6 6
6 6 6 5 5 5 5 6 5 5 5 6 6 6 6 5 6 6 6 6 6 6 6 6 6 6 6 6 6 6 6 6 6
5 6 5 5 4 5 5 5 5 5 5 5 5 5 5 5 5 5 6 6 6 6 6 6 6 6 6 5 5 5 5 5 5
5 5 5 5 4 1 2 4 5 4 4 5 5 4 5 5 5 5 5 5 5 5 5 5 5 5 5 5 5 5 5 5 5
4 4 4 4 2 1 -1 2 3 3 3 4 4 4 4 5 5 5 5 4 5 5 5 5 5 5 5 4 4 4 4 4 4
3 3 3 3 1 -0 1 1 1 -1 1 2 3 3 3 4 4 4 4 4 4 4 5 5 5 4 4 4 4 4 4 3 3
3 2 2 2 1 -1 0 0 0 -1 0 2 1 2 3 3 4 4 4 4 4 4 4 4 4 4 4 3 3 3 3 3 3
1 2 2 1 -1 -1 -0 1 1 0 -1 -0 -1 -0 3 3 3 3 3 3 3 3 3 3 3 4 3 3 2 2 2 2 2
-1 -1 -1 1 1 -1 -2 1 -0 -0 0 -0 -1 -1 -0 2 1 2 2 2 2 2 2 2 2 2 2 2 2 2 2 2 2
-1 -2 -3 -3 -1 -3 -1 -2 -0 -1 -2 -1 -2 -1 -1 -0 -0 1 0 1 1 1 1 1 1 1 1 2 2 1 1 1 1
Height
3164 3165 3166 3167 3168 3169 3171 3171 3172 3172 3172 3173 3173 3174 3175 3176 3176 3177 3177 3178 3178 3179 3181 3182 3182 3183 3184 3184 3185 3186 3185 3186 3186
3163 3164 3165 3167 3168 3169 3170 3171 3172 3172 3173 3173 3174 3175 3176 3177 3177 3177 3177 3177 3179 3180 3181 3182 3183 3184 3185 3185 3186 3186 3187 3187 3188
3162 3164 3165 3166 3167 3168 3169 3170 3171 3172 3173 3173 3174 3175 3176 3176 3177 3177 3177 3177 3179 3180 3182 3183 3184 3185 3186 3186 3186 3187 3188 3188 3189
3161 3162 3163 3165 3166 3167 3168 3169 3171 3172 3172 3173 3174 3175 3175 3176 3177 3177 3178 3179 3180 3181 3182 3184 3185 3185 3186 3186 3187 3188 3188 3189 3189
3159 3160 3161 3162 3164 3165 3166 3167 3169 3170 3171 3172 3173 3174 3175 3175 3176 3177 3178 3179 3181 3181 3183 3184 3185 3185 3186 3187 3188 3189 3189 3189 3190
3157 3158 3159 3160 3161 3163 3164 3165 3166 3167 3169 3171 3172 3173 3174 3174 3175 3176 3178 3180 3181 3181 3183 3183 3183 3185 3186 3188 3189 3189 3190 3190 3190
3153 3155 3156 3157 3159 3160 3161 3162 3163 3166 3167 3168 3169 3171 3172 3173 3174 3175 3177 3179 3180 3181 3182 3182 3183 3184 3186 3187 3188 3189 3189 3190 3190
3148 3150 3152 3154 3155 3156 3158 3159 3161 3163 3165 3166 3168 3169 3171 3172 3173 3175 3176 3177 3179 3180 3181 3182 3182 3183 3184 3186 3187 3187 3188 3188 3189
3144 3146 3148 3151 3153 3154 3156 3157 3159 3160 3163 3164 3165 3168 3169 3170 3172 3173 3174 3175 3176 3178 3179 3181 3181 3182 3183 3184 3185 3186 3187 3188 3189
3140 3142 3143 3146 3148 3151 3153 3154 3156 3158 3159 3162 3164 3165 3167 3168 3169 3170 3171 3173 3174 3176 3177 3178 3179 3181 3182 3182 3183 3184 3185 3186 3187
3135 3137 3139 3141 3144 3146 3149 3150 3152 3155 3156 3158 3160 3163 3164 3165 3166 3167 3169 3170 3172 3173 3174 3176 3177 3179 3179 3180 3181 3182 3183 3183 3183
3131 3133 3135 3136 3138 3141 3144 3145 3148 3149 3152 3154 3157 3159 3161 3162 3162 3163 3165 3167 3169 3170 3171 3172 3174 3175 3176 3178 3179 3179 3180 3180 3180
3126 3128 3130 3132 3133 3136 3138 3141 3143 3145 3148 3151 3153 3156 3157 3159 3160 3161 3162 3164 3166 3167 3168 3170 3171 3172 3174 3175 3176 3176 3176 3176 3176
3123 3124 3125 3127 3129 3131 3133 3136 3138 3141 3144 3147 3149 3151 3153 3155 3157 3159 3160 3161 3162 3164 3165 3166 3167 3168 3170 3171 3171 3172 3172 3172 3172
3117 3119 3120 3123 3126 3129 3131 3132 3134 3137 3139 3142 3144 3146 3148 3151 3152 3154 3157 3158 3159 3160 3161 3162 3163 3164 3165 3166 3166 3167 3167 3167 3168
3111 3113 3115 3118 3122 3126 3129 3129 3131 3133 3134 3137 3139 3140 3142 3145 3147 3149 3151 3153 3154 3156 3156 3157 3158 3159 3159 3160 3161 3162 3162 3162 3163
3106 3108 3111 3113 3116 3121 3125 3127 3129 3129 3129 3131 3134 3133 3137 3139 3141 3143 3146 3147 3148 3149 3151 3152 3153 3154 3154 3155 3156 3156 3156 3157 3157
3101 3103 3105 3108 3111 3115 3119 3123 3125 3126 3126 3128 3129 3127 3128 3134 3135 3138 3139 3141 3142 3143 3143 3144 3146 3147 3148 3149 3149 3150 3150 3150 3151
3097 3098 3099 3101 3105 3109 3113 3114 3118 3120 3121 3121 3121 3122 3124 3125 3127 3129 3132 3133 3134 3136 3137 3138 3139 3140 3141 3142 3143 3144 3144 3144 3144
3093 3093 3093 3095 3098 3102 3106 3107 3109 3110 3112 3114 3116 3116 3116 3117 3119 3121 3124 3124 3126 3128 3129 3130 3130 3132 3133 3134 3135 3136 3136 3136 3136
Wind_Speed
18 20 18 15 14 14 10 8 9 9 9 8 8 8 7 7 8 8 10 10 10 10 11 10 9 9 10 9 8 8 9 10 10
22 22 18 17 19 19 15 11 11 11 10 9 9 8 8 7 6 8 10 12 12 11 11 9 9 8 8 8 8 8 9 10 11
22 22 20 19 19 17 14 13 12 12 11 11 10 9 8 6 5 7 10 11 13 12 10 9 9 8 7 8 9 10 10 11 10
23 22 22 20 18 17 15 14 13 14 14 13 11 10 9 7 7 8 10 11 11 10 10 9 9 9 9 9 10 10 10 9 9
25 26 24 23 21 17 16 15 15 16 16 13 12 11 10 10 10 11 9 12 11 12 11 11 10 11 10 10 9 9 8 8 8
29 29 26 26 25 22 19 17 17 17 17 15 13 13 12 13 13 13 11 10 11 13 12 12 12 11 10 9 8 7 7 7 6
31 27 26 27 23 23 22 21 20 18 18 16 15 13 13 13 13 14 13 12 12 11 13 13 13 12 10 9 8 7 6 5 5
30 29 27 23 24 22 22 21 19 20 18 18 16 15 14 13 13 14 14 14 14 14 14 13 13 13 11 9 8 7 6 5 5
33 31 30 27 25 24 23 21 20 21 20 19 17 16 15 14 14 14 15 14 15 16 15 14 13 12 11 10 10 9 7 6 5
34 32 31 30 28 26 25 23 23 24 23 22 20 18 17 15 16 16 16 16 17 17 16 16 14 13 11 12 11 10 8 8 7
33 32 30 29 29 29 28 27 26 26 25 24 22 20 18 17 18 18 18 17 17 18 17 17 15 15 15 15 14 12 11 10 9
30 29 28 27 28 29 30 30 28 29 28 27 25 22 20 18 19 20 20 20 19 19 19 19 18 18 18 17 15 14 14 13 12
27 27 28 27 27 28 30 30 30 29 30 29 26 24 22 21 20 21 21 21 21 21 21 20 20 20 19 18 17 17 16 16 15
27 27 27 29 27 26 28 32 31 31 30 29 27 27 25 23 22 23 22 22 21 22 22 22 22 21 20 20 20 19 19 18 18
27 27 28 29 26 24 32 30 29 29 28 29 29 29 27 26 25 24 22 23 22 23 24 23 23 23 22 22 23 22 22 21 21
27 27 28 30 27 29 23 31 29 30 30 30 30 30 30 28 27 26 23 23 23 23 24 25 25 25 24 24 25 24 24 24 24
28 28 29 30 31 29 35 39 35 33 35 30 28 32 33 30 29 29 27 25 25 25 26 26 26 26 26 25 26 27 28 27 27
27 30 30 31 35 32 37 32 32 33 29 32 34 35 35 29 31 30 29 27 28 28 28 27 27 28 28 27 28 29 29 29 29
21 25 28 32 34 38 39 39 39 39 33 39 33 34 36 33 30 31 31 31 30 29 29 28 28 28 29 28 29 30 31 32 31
21 20 25 28 33 38 41 41 51 40 37 36 36 41 34 35 34 34 31 32 30 29 30 30 30 30 29 29 30 30 32 33 34
Wind_Direction
186 187 195 211 229 252 264 230 199 186 181 179 174 174 173 180 188 194 191 185 172 163 158 159 150 139 134 126 117 113 109 97 95
194 204 213 229 244 253 253 244 217 203 194 190 188 186 191 193 203 207 204 194 179 172 168 157 149 141 134 129 122 113 106 103 94
211 217 220 228 241 245 243 239 227 214 203 201 199 198 201 197 194 191 180 162 160 158 159 154 145 147 139 132 126 124 115 104 98
217 223 226 230 240 244 232 233 228 220 212 205 202 208 208 192 188 185 158 146 156 156 156 161 152 152 145 145 136 127 120 113 105
216 228 232 233 241 246 238 236 228 222 220 210 205 211 210 202 193 186 178 173 163 161 167 160 160 155 152 149 141 135 128 118 108
224 231 237 236 238 240 243 235 228 222 223 214 215 211 210 199 191 188 187 176 175 167 172 168 166 161 162 154 151 144 134 129 111
228 232 239 242 243 243 238 231 228 224 223 220 221 218 208 201 192 191 189 187 181 180 182 179 174 172 169 169 167 161 153 139 125
224 233 243 243 244 241 232 236 227 224 224 223 219 220 215 206 200 197 196 194 187 190 195 191 185 183 181 178 182 179 178 171 161
233 233 240 243 244 241 239 233 230 221 221 225 225 221 216 209 206 203 202 200 197 198 198 200 199 197 193 192 195 200 196 201 201
236 235 235 241 240 240 239 234 230 225 222 226 226 222 219 214 210 207 206 204 204 206 205 207 208 208 206 210 211 213 210 215 221
237 236 235 236 238 236 238 235 230 231 227 228 228 224 222 216 214 214 212 212 212 213 215 216 214 216 218 220 221 222 223 226 233
237 232 231 225 232 232 233 234 226 228 229 230 230 227 223 219 217 216 217 218 218 220 219 220 222 222 225 225 228 228 232 236 240
233 232 231 228 222 225 229 232 228 228 228 231 234 231 227 224 223 222 220 222 224 224 226 227 227 229 230 233 234 235 238 242 247
241 233 232 231 221 217 223 228 233 231 231 233 235 234 232 229 228 231 232 231 231 231 230 232 234 235 235 237 238 240 245 249 253
237 236 231 227 220 211 227 233 230 234 235 233 234 235 235 233 233 233 234 241 239 239 239 237 237 239 239 241 243 244 248 252 257
237 234 232 227 215 214 218 228 237 241 241 237 236 237 237 237 237 239 235 239 245 245 245 244 244 243 241 242 246 249 253 256 258
238 234 231 229 222 212 213 223 232 241 243 242 244 243 240 236 239 241 242 238 240 243 246 247 249 249 248 246 248 250 254 257 260
238 237 234 230 218 213 230 225 236 240 245 248 250 251 246 245 244 246 247 246 243 241 243 247 248 248 248 247 250 254 258 260 263
231 231 235 233 229 219 222 221 229 230 236 245 253 250 254 250 251 247 248 248 249 252 252 252 251 248 248 248 250 254 259 263 265
215 237 223 235 229 217 229 230 230 235 239 241 251 255 262 259 256 251 250 255 254 253 255 256 254 254 252 250 250 252 256 259 262